Location: Auckland
(36.8670°S, 174.7670°E)
Time: 22:04:12
(UTC+13:00)

Cosmos 2219 Rocket - Pass Details

Date: 19 November 2019
Orbit: 827 x 847 km, 71.0° (Epoch: 06 December)

Event Time Altitude Azimuth Distance (km) Brightness Sun altitude
Rises 20:44:08 0° 210° (SSW) 3,409 6.6 -6.5°
Reaches altitude 10° 20:46:42 10° 217° (SW) 2,465 5.9 -6.9°
Maximum altitude 20:51:57 41° 285° (WNW) 1,203 3.5 -7.8°
Drops below altitude 10° 20:57:08 10° 353° (N) 2,430 4.3 -8.7°
Sets 20:59:40 0° 0° (N) 3,354 5.0 -9.1°
